owner,sensor,date,latitude,longitude,vertical_datum,wind_speed,wind_to_direction,wind_speed_of_gust,qcFlag 
TCOON,ioos:station:TCOON:031:1,2017-01-01T00:00:00Z,28.4073,-96.7122,0.0,3.1,168.0,3.8,'11111222,11111222,11111222' 
TCOON,ioos:station:TCOON:031:1,2017-01-01T00:06:00Z,28.4073,-96.7122,0.0,2.9,160.0,3.5,'11111222,11111222,11111222' 
TCOON,ioos:station:TCOON:031:1,2017-01-01T00:12:00Z,28.4073,-96.7122,0.0,3.2,160.0,3.6,'11111222,11111222,11111222' 
TCOON,ioos:station:TCOON:031:1,2017-01-01T00:18:00Z,28.4073,-96.7122,0.0,3.5,165.0,3.9,'11111222,11111222,11111222' 
TCOON,ioos:station:TCOON:031:1,2017-01-01T00:24:00Z,28.4073,-96.7122,0.0,3.5,165.0,3.9,'1111122,1111122,1111122' 
TCOON,ioos:station:TCOON:031:1,2017-01-01T00:30:00Z,28.4073,-96.7122,0.0,2.8,174.0,3.8,'11111222,11111222,11111222' 
TCOON,ioos:station:TCOON:031:1,2017-01-01T00:36:00Z,28.4073,-96.7122,0.0,3.3,161.0,3.6,'11111222,11111222,11111222' 
TCOON,ioos:station:TCOON:031:1,2017-01-01T00:42:00Z,28.4073,-96.7122,0.0,2.4,159.0,3.6,'11111222,11111222,11111222' 
TCOON,ioos:station:TCOON:031:1,2017-01-01T00:48:00Z,28.4073,-96.7122,0.0,3.9,150.0,4.3,'11111222,11111222,11111222' 
TCOON,ioos:station:TCOON:031:1,2017-01-01T00:54:00Z,28.4073,-96.7122,0.0,2.8,157.0,4.2,'11111222,11111222,11111222' 
TCOON,ioos:station:TCOON:031:1,2017-01-01T01:00:00Z,28.4073,-96.7122,0.0,3.7,156.0,4.0,'11111222,11111222,11111222' 
TCOON,ioos:station:TCOON:031:1,2017-01-01T01:06:00Z,28.4073,-96.7122,0.0,2.7,166.0,3.8,'11111222,11111222,11111222' 
TCOON,ioos:station:TCOON:031:1,2017-01-01T01:12:00Z,28.4073,-96.7122,0.0,2.6,172.0,3.0,'11111222,11111222,11111222' 
TCOON,ioos:station:TCOON:031:1,2017-01-01T01:18:00Z,28.4073,-96.7122,0.0,2.6,172.0,3.0,'1111122,1111122,1111122' 
TCOON,ioos:station:TCOON:031:1,2017-01-01T01:24:00Z,28.4073,-96.7122,0.0,2.2,178.0,2.6,'11111222,11111222,11111222' 
TCOON,ioos:station:TCOON:031:1,2017-01-01T01:30:00Z,28.4073,-96.7122,0.0,2.3,172.0,2.6,'11111222,11111222,11111222' 
TCOON,ioos:station:TCOON:031:1,2017-01-01T01:36:00Z,28.4073,-96.7122,0.0,2.4,160.0,2.6,'11111222,11111222,11111222' 
TCOON,ioos:station:TCOON:031:1,2017-01-01T01:42:00Z,28.4073,-96.7122,0.0,2.3,170.0,2.6,'11111222,11111222,11111222' 
TCOON,ioos:station:TCOON:031:1,2017-01-01T01:48:00Z,28.4073,-96.7122,0.0,2.8,172.0,3.1,'11111222,11111222,11111222' 
TCOON,ioos:station:TCOON:031:1,2017-01-01T01:54:00Z,28.4073,-96.7122,0.0,2.4,180.0,3.1,'11111222,11111222,11111222' 
TCOON,ioos:station:TCOON:031:1,2017-01-01T02:00:00Z,28.4073,-96.7122,0.0,2.4,174.0,2.7,'11111222,11111222,11111222' 
TCOON,ioos:station:TCOON:031:1,2017-01-01T02:06:00Z,28.4073,-96.7122,0.0,2.5,176.0,3.1,'11111222,11111222,11111222' 
TCOON,ioos:station:TCOON:031:1,2017-01-01T02:12:00Z,28.4073,-96.7122,0.0,1.9,169.0,2.5,'11111222,11111222,11111222' 
TCOON,ioos:station:TCOON:031:1,2017-01-01T02:18:00Z,28.4073,-96.7122,0.0,1.9,169.0,2.5,'1111122,1111122,1111122' 
TCOON,ioos:station:TCOON:031:1,2017-01-01T02:24:00Z,28.4073,-96.7122,0.0,2.7,177.0,3.1,'11111222,11111222,11111222' 
TCOON,ioos:station:TCOON:031:1,2017-01-01T02:30:00Z,28.4073,-96.7122,0.0,2.7,177.0,3.0,'11111222,11111222,11111222' 
TCOON,ioos:station:TCOON:031:1,2017-01-01T02:36:00Z,28.4073,-96.7122,0.0,3.2,178.0,3.5,'11111222,11111222,11111222' 
TCOON,ioos:station:TCOON:031:1,2017-01-01T02:42:00Z,28.4073,-96.7122,0.0,2.7,172.0,3.3,'11111222,11111222,11111222' 
TCOON,ioos:station:TCOON:031:1,2017-01-01T02:48:00Z,28.4073,-96.7122,0.0,2.8,173.0,3.0,'11111222,11111222,11111222' 
TCOON,ioos:station:TCOON:031:1,2017-01-01T02:54:00Z,28.4073,-96.7122,0.0,2.5,170.0,3.2,'11111222,11111222,11111222' 
TCOON,ioos:station:TCOON:031:1,2017-01-01T03:00:00Z,28.4073,-96.7122,0.0,2.6,172.0,2.7,'11111222,11111222,11111222' 
TCOON,ioos:station:TCOON:031:1,2017-01-01T03:06:00Z,28.4073,-96.7122,0.0,2.1,164.0,2.7,'11111222,11111222,11111222' 
TCOON,ioos:station:TCOON:031:1,2017-01-01T03:12:00Z,28.4073,-96.7122,0.0,2.1,166.0,2.5,'11111222,11111222,11111222' 
TCOON,ioos:station:TCOON:031:1,2017-01-01T03:18:00Z,28.4073,-96.7122,0.0,2.1,166.0,2.5,'1111122,1111122,1111122' 
TCOON,ioos:station:TCOON:031:1,2017-01-01T03:24:00Z,28.4073,-96.7122,0.0,1.8,151.0,2.4,'11111222,11111222,11111222' 
TCOON,ioos:station:TCOON:031:1,2017-01-01T03:30:00Z,28.4073,-96.7122,0.0,2.7,173.0,3.0,'11111222,11111222,11111222' 
TCOON,ioos:station:TCOON:031:1,2017-01-01T03:36:00Z,28.4073,-96.7122,0.0,2.8,169.0,3.1,'11111222,11111222,11111222' 
TCOON,ioos:station:TCOON:031:1,2017-01-01T03:42:00Z,28.4073,-96.7122,0.0,2.4,147.0,2.9,'11111222,11111222,11111222' 
TCOON,ioos:station:TCOON:031:1,2017-01-01T03:48:00Z,28.4073,-96.7122,0.0,2.3,141.0,2.6,'11111222,11111222,11111222' 
TCOON,ioos:station:TCOON:031:1,2017-01-01T03:54:00Z,28.4073,-96.7122,0.0,2.0,154.0,2.8,'11111222,11111222,11111222' 
TCOON,ioos:station:TCOON:031:1,2017-01-01T04:00:00Z,28.4073,-96.7122,0.0,2.2,150.0,2.5,'11111222,11111222,11111222' 
TCOON,ioos:station:TCOON:031:1,2017-01-01T04:06:00Z,28.4073,-96.7122,0.0,2.0,156.0,2.5,'11111222,11111222,11111222' 
TCOON,ioos:station:TCOON:031:1,2017-01-01T04:12:00Z,28.4073,-96.7122,0.0,2.5,140.0,2.6,'11111222,11111222,11111222' 
TCOON,ioos:station:TCOON:031:1,2017-01-01T04:18:00Z,28.4073,-96.7122,0.0,2.6,136.0,2.9,'11111222,11111222,11111222' 
TCOON,ioos:station:TCOON:031:1,2017-01-01T04:24:00Z,28.4073,-96.7122,0.0,2.7,128.0,3.4,'11111222,11111222,11111222' 
TCOON,ioos:station:TCOON:031:1,2017-01-01T04:30:00Z,28.4073,-96.7122,0.0,2.7,128.0,3.4,'1111122,1111122,1111122' 
TCOON,ioos:station:TCOON:031:1,2017-01-01T04:36:00Z,28.4073,-96.7122,0.0,2.5,119.0,2.9,'11111222,11111222,11111222' 
TCOON,ioos:station:TCOON:031:1,2017-01-01T04:42:00Z,28.4073,-96.7122,0.0,2.2,119.0,2.7,'11111222,11111222,11111222' 
TCOON,ioos:station:TCOON:031:1,2017-01-01T04:48:00Z,28.4073,-96.7122,0.0,3.0,122.0,3.5,'11111222,11111222,11111222' 
TCOON,ioos:station:TCOON:031:1,2017-01-01T04:54:00Z,28.4073,-96.7122,0.0,3.2,119.0,3.7,'11111222,11111222,11111222' 
TCOON,ioos:station:TCOON:031:1,2017-01-01T05:00:00Z,28.4073,-96.7122,0.0,2.5,116.0,3.3,'11111222,11111222,11111222' 
TCOON,ioos:station:TCOON:031:1,2017-01-01T05:06:00Z,28.4073,-96.7122,0.0,2.7,105.0,3.0,'11111222,11111222,11111222' 
TCOON,ioos:station:TCOON:031:1,2017-01-01T05:12:00Z,28.4073,-96.7122,0.0,2.6,111.0,3.2,'11111222,11111222,11111222' 
TCOON,ioos:station:TCOON:031:1,2017-01-01T05:18:00Z,28.4073,-96.7122,0.0,2.6,115.0,3.1,'11111222,11111222,11111222' 
TCOON,ioos:station:TCOON:031:1,2017-01-01T05:24:00Z,28.4073,-96.7122,0.0,2.6,115.0,3.1,'1111122,1111122,1111122' 
TCOON,ioos:station:TCOON:031:1,2017-01-01T05:30:00Z,28.4073,-96.7122,0.0,2.3,121.0,2.9,'11111222,11111222,11111222' 
TCOON,ioos:station:TCOON:031:1,2017-01-01T05:36:00Z,28.4073,-96.7122,0.0,2.1,117.0,2.9,'11111222,11111222,11111222' 
TCOON,ioos:station:TCOON:031:1,2017-01-01T05:42:00Z,28.4073,-96.7122,0.0,2.1,111.0,2.4,'11111222,11111222,11111222' 
TCOON,ioos:station:TCOON:031:1,2017-01-01T05:48:00Z,28.4073,-96.7122,0.0,2.4,117.0,2.9,'11111222,11111222,11111222' 
TCOON,ioos:station:TCOON:031:1,2017-01-01T05:54:00Z,28.4073,-96.7122,0.0,2.5,118.0,3.2,'11111222,11111222,11111222' 
TCOON,ioos:station:TCOON:031:1,2017-01-01T06:00:00Z,28.4073,-96.7122,0.0,2.2,117.0,2.9,'11111222,11111222,11111222' 
TCOON,ioos:station:TCOON:031:1,2017-01-01T06:06:00Z,28.4073,-96.7122,0.0,2.1,114.0,2.6,'11111222,11111222,11111222' 
TCOON,ioos:station:TCOON:031:1,2017-01-01T06:12:00Z,28.4073,-96.7122,0.0,1.9,112.0,2.4,'11111222,11111222,11111222' 
TCOON,ioos:station:TCOON:031:1,2017-01-01T06:18:00Z,28.4073,-96.7122,0.0,1.9,112.0,2.4,'1111122,1111122,1111122' 
TCOON,ioos:station:TCOON:031:1,2017-01-01T06:24:00Z,28.4073,-96.7122,0.0,1.6,119.0,1.9,'11111222,11111222,11111222' 
TCOON,ioos:station:TCOON:031:1,2017-01-01T06:30:00Z,28.4073,-96.7122,0.0,1.9,111.0,2.2,'11111222,11111222,11111222' 
TCOON,ioos:station:TCOON:031:1,2017-01-01T06:36:00Z,28.4073,-96.7122,0.0,1.9,114.0,2.2,'11111222,11111222,11111222' 
TCOON,ioos:station:TCOON:031:1,2017-01-01T06:42:00Z,28.4073,-96.7122,0.0,2.2,116.0,2.6,'11111222,11111222,11111222' 
TCOON,ioos:station:TCOON:031:1,2017-01-01T06:48:00Z,28.4073,-96.7122,0.0,2.4,110.0,2.9,'11111222,11111222,11111222' 
TCOON,ioos:station:TCOON:031:1,2017-01-01T06:54:00Z,28.4073,-96.7122,0.0,2.3,111.0,2.9,'11111222,11111222,11111222' 
TCOON,ioos:station:TCOON:031:1,2017-01-01T07:00:00Z,28.4073,-96.7122,0.0,2.1,108.0,2.8,'11111222,11111222,11111222' 
TCOON,ioos:station:TCOON:031:1,2017-01-01T07:06:00Z,28.4073,-96.7122,0.0,2.3,102.0,2.7,'11111222,11111222,11111222' 
TCOON,ioos:station:TCOON:031:1,2017-01-01T07:12:00Z,28.4073,-96.7122,0.0,2.2,110.0,2.8,'11111222,11111222,11111222' 
TCOON,ioos:station:TCOON:031:1,2017-01-01T07:18:00Z,28.4073,-96.7122,0.0,2.2,110.0,2.8,'1111122,1111122,1111122' 
TCOON,ioos:station:TCOON:031:1,2017-01-01T07:24:00Z,28.4073,-96.7122,0.0,2.5,104.0,3.0,'11111222,11111222,11111222' 
TCOON,ioos:station:TCOON:031:1,2017-01-01T07:30:00Z,28.4073,-96.7122,0.0,2.3,102.0,3.1,'11111222,11111222,11111222' 
TCOON,ioos:station:TCOON:031:1,2017-01-01T07:36:00Z,28.4073,-96.7122,0.0,2.6,105.0,3.1,'11111222,11111222,11111222' 
TCOON,ioos:station:TCOON:031:1,2017-01-01T07:42:00Z,28.4073,-96.7122,0.0,2.1,105.0,3.0,'11111222,11111222,11111222' 
TCOON,ioos:station:TCOON:031:1,2017-01-01T07:48:00Z,28.4073,-96.7122,0.0,1.9,110.0,2.5,'11111222,11111222,11111222' 
TCOON,ioos:station:TCOON:031:1,2017-01-01T07:54:00Z,28.4073,-96.7122,0.0,1.7,107.0,2.2,'11111222,11111222,11111222' 
TCOON,ioos:station:TCOON:031:1,2017-01-01T08:00:00Z,28.4073,-96.7122,0.0,1.3,98.0,2.0,'11111222,11111222,11111222' 
TCOON,ioos:station:TCOON:031:1,2017-01-01T08:06:00Z,28.4073,-96.7122,0.0,0.2,96.0,1.2,'11111222,11111222,11111222' 
TCOON,ioos:station:TCOON:031:1,2017-01-01T08:12:00Z,28.4073,-96.7122,0.0,0.0,96.0,0.2,'11111222,11111222,11111222' 
TCOON,ioos:station:TCOON:031:1,2017-01-01T08:18:00Z,28.4073,-96.7122,0.0,0.0,96.0,0.2,'1114422,1111122,1111122' 
TCOON,ioos:station:TCOON:031:1,2017-01-01T08:24:00Z,28.4073,-96.7122,0.0,0.0,96.0,0.3,'11111222,11111222,11111222' 
TCOON,ioos:station:TCOON:031:1,2017-01-01T08:30:00Z,28.4073,-96.7122,0.0,0.0,96.0,0.2,'11111222,11111222,11111222' 
TCOON,ioos:station:TCOON:031:1,2017-01-01T08:36:00Z,28.4073,-96.7122,0.0,1.1,219.0,1.2,'11111222,11111222,11111222' 
TCOON,ioos:station:TCOON:031:1,2017-01-01T08:42:00Z,28.4073,-96.7122,0.0,1.2,218.0,1.3,'11111222,11111222,11111222' 
TCOON,ioos:station:TCOON:031:1,2017-01-01T08:48:00Z,28.4073,-96.7122,0.0,0.8,206.0,1.1,'11111222,11111222,11111222' 
TCOON,ioos:station:TCOON:031:1,2017-01-01T08:54:00Z,28.4073,-96.7122,0.0,1.3,200.0,1.4,'11111222,11111222,11111222' 
TCOON,ioos:station:TCOON:031:1,2017-01-01T09:00:00Z,28.4073,-96.7122,0.0,0.6,209.0,1.4,'11111222,11111222,11111222' 
TCOON,ioos:station:TCOON:031:1,2017-01-01T09:06:00Z,28.4073,-96.7122,0.0,0.4,212.0,0.5,'11111222,11111222,11111222' 
TCOON,ioos:station:TCOON:031:1,2017-01-01T09:12:00Z,28.4073,-96.7122,0.0,0.4,255.0,0.8,'11111222,11111222,11111222' 
TCOON,ioos:station:TCOON:031:1,2017-01-01T09:18:00Z,28.4073,-96.7122,0.0,0.6,242.0,0.9,'11111222,11111222,11111222' 
TCOON,ioos:station:TCOON:031:1,2017-01-01T09:24:00Z,28.4073,-96.7122,0.0,0.6,242.0,0.9,'1111122,1111122,1111122' 
TCOON,ioos:station:TCOON:031:1,2017-01-01T09:30:00Z,28.4073,-96.7122,0.0,1.1,292.0,1.5,'11111222,11111222,11111222' 
TCOON,ioos:station:TCOON:031:1,2017-01-01T09:36:00Z,28.4073,-96.7122,0.0,0.8,351.0,1.6,'11111222,11111222,11111222' 
TCOON,ioos:station:TCOON:031:1,2017-01-01T09:42:00Z,28.4073,-96.7122,0.0,0.7,332.0,1.0,'11111222,11111222,11111222' 
TCOON,ioos:station:TCOON:031:1,2017-01-01T09:48:00Z,28.4073,-96.7122,0.0,0.0,330.0,0.5,'11111222,11111222,11111222' 
TCOON,ioos:station:TCOON:031:1,2017-01-01T09:54:00Z,28.4073,-96.7122,0.0,0.0,330.0,0.0,'11111222,11111222,11111222' 
TCOON,ioos:station:TCOON:031:1,2017-01-01T10:00:00Z,28.4073,-96.7122,0.0,0.2,330.0,0.4,'11111222,11111222,11111222' 
TCOON,ioos:station:TCOON:031:1,2017-01-01T10:06:00Z,28.4073,-96.7122,0.0,0.0,330.0,0.1,'11111222,11111222,11111222' 
TCOON,ioos:station:TCOON:031:1,2017-01-01T10:12:00Z,28.4073,-96.7122,0.0,0.0,330.0,0.0,'11111222,11111222,11111222' 
TCOON,ioos:station:TCOON:031:1,2017-01-01T10:18:00Z,28.4073,-96.7122,0.0,0.0,330.0,0.0,'1114422,1111122,1114422' 
TCOON,ioos:station:TCOON:031:1,2017-01-01T10:24:00Z,28.4073,-96.7122,0.0,0.3,13.0,0.9,'11111222,11111222,11111222' 
TCOON,ioos:station:TCOON:031:1,2017-01-01T10:30:00Z,28.4073,-96.7122,0.0,0.7,72.0,1.0,'11111222,11111222,11111222' 
TCOON,ioos:station:TCOON:031:1,2017-01-01T10:36:00Z,28.4073,-96.7122,0.0,1.4,88.0,1.7,'11111222,11111222,11111222' 
TCOON,ioos:station:TCOON:031:1,2017-01-01T10:42:00Z,28.4073,-96.7122,0.0,2.4,88.0,2.8,'11111222,11111222,11111222' 
TCOON,ioos:station:TCOON:031:1,2017-01-01T10:48:00Z,28.4073,-96.7122,0.0,3.0,99.0,3.3,'11111222,11111222,11111222' 
TCOON,ioos:station:TCOON:031:1,2017-01-01T10:54:00Z,28.4073,-96.7122,0.0,1.6,77.0,3.1,'11111222,11111222,11111222' 
TCOON,ioos:station:TCOON:031:1,2017-01-01T11:00:00Z,28.4073,-96.7122,0.0,1.5,25.0,1.8,'11111222,11111222,11111222' 
TCOON,ioos:station:TCOON:031:1,2017-01-01T11:06:00Z,28.4073,-96.7122,0.0,0.0,36.0,1.2,'11111222,11111222,11111222' 
TCOON,ioos:station:TCOON:031:1,2017-01-01T11:12:00Z,28.4073,-96.7122,0.0,0.7,49.0,1.2,'11111222,11111222,11111222' 
TCOON,ioos:station:TCOON:031:1,2017-01-01T11:18:00Z,28.4073,-96.7122,0.0,0.7,49.0,1.2,'1111122,1111122,1111122' 
TCOON,ioos:station:TCOON:031:1,2017-01-01T11:24:00Z,28.4073,-96.7122,0.0,0.8,34.0,2.8,'11111222,11111222,11111222' 
TCOON,ioos:station:TCOON:031:1,2017-01-01T11:30:00Z,28.4073,-96.7122,0.0,0.8,92.0,1.5,'11111222,11111222,11111222' 
TCOON,ioos:station:TCOON:031:1,2017-01-01T11:36:00Z,28.4073,-96.7122,0.0,2.4,133.0,2.7,'11111222,11111222,11111222' 
TCOON,ioos:station:TCOON:031:1,2017-01-01T11:42:00Z,28.4073,-96.7122,0.0,3.4,127.0,4.0,'11111222,11111222,11111222' 
TCOON,ioos:station:TCOON:031:1,2017-01-01T11:48:00Z,28.4073,-96.7122,0.0,2.4,166.0,4.2,'11111222,11111222,11111222' 
TCOON,ioos:station:TCOON:031:1,2017-01-01T11:54:00Z,28.4073,-96.7122,0.0,2.9,129.0,3.5,'11111222,11111222,11111222' 
TCOON,ioos:station:TCOON:031:1,2017-01-01T12:00:00Z,28.4073,-96.7122,0.0,3.9,139.0,4.7,'11111222,11111222,11111222' 
TCOON,ioos:station:TCOON:031:1,2017-01-01T12:06:00Z,28.4073,-96.7122,0.0,3.4,235.0,4.1,'11111222,11111222,11111222' 
TCOON,ioos:station:TCOON:031:1,2017-01-01T12:12:00Z,28.4073,-96.7122,0.0,1.7,178.0,4.4,'11111222,11111222,11111222' 
TCOON,ioos:station:TCOON:031:1,2017-01-01T12:18:00Z,28.4073,-96.7122,0.0,1.7,178.0,4.4,'1111122,1111122,1111122' 
TCOON,ioos:station:TCOON:031:1,2017-01-01T12:24:00Z,28.4073,-96.7122,0.0,3.2,172.0,3.5,'11111222,11111222,11111222' 
TCOON,ioos:station:TCOON:031:1,2017-01-01T12:30:00Z,28.4073,-96.7122,0.0,3.1,170.0,3.3,'11111222,11111222,11111222' 
TCOON,ioos:station:TCOON:031:1,2017-01-01T12:36:00Z,28.4073,-96.7122,0.0,3.0,153.0,3.4,'11111222,11111222,11111222' 
TCOON,ioos:station:TCOON:031:1,2017-01-01T12:42:00Z,28.4073,-96.7122,0.0,1.4,135.0,3.1,'11111222,11111222,11111222' 
TCOON,ioos:station:TCOON:031:1,2017-01-01T12:48:00Z,28.4073,-96.7122,0.0,1.6,151.0,2.5,'11111222,11111222,11111222' 
TCOON,ioos:station:TCOON:031:1,2017-01-01T12:54:00Z,28.4073,-96.7122,0.0,2.2,154.0,2.4,'11111222,11111222,11111222' 
TCOON,ioos:station:TCOON:031:1,2017-01-01T13:00:00Z,28.4073,-96.7122,0.0,4.2,121.0,4.8,'11111222,11111222,11111222' 
TCOON,ioos:station:TCOON:031:1,2017-01-01T13:06:00Z,28.4073,-96.7122,0.0,4.9,129.0,6.0,'11111222,11111222,11111222' 
TCOON,ioos:station:TCOON:031:1,2017-01-01T13:12:00Z,28.4073,-96.7122,0.0,5.1,134.0,5.7,'11111222,11111222,11111222' 
TCOON,ioos:station:TCOON:031:1,2017-01-01T13:18:00Z,28.4073,-96.7122,0.0,5.1,134.0,5.7,'1111122,1111122,1111122' 
TCOON,ioos:station:TCOON:031:1,2017-01-01T13:24:00Z,28.4073,-96.7122,0.0,9.9,106.0,12.1,'11111222,11111222,11111222' 
TCOON,ioos:station:TCOON:031:1,2017-01-01T13:30:00Z,28.4073,-96.7122,0.0,8.8,117.0,11.3,'11111222,11111222,11111222' 
TCOON,ioos:station:TCOON:031:1,2017-01-01T13:36:00Z,28.4073,-96.7122,0.0,8.7,114.0,10.6,'11111222,11111222,11111222' 
TCOON,ioos:station:TCOON:031:1,2017-01-01T13:42:00Z,28.4073,-96.7122,0.0,9.6,116.0,11.2,'11111222,11111222,11111222' 
TCOON,ioos:station:TCOON:031:1,2017-01-01T13:48:00Z,28.4073,-96.7122,0.0,9.2,126.0,12.7,'11111222,11111222,11111222' 
TCOON,ioos:station:TCOON:031:1,2017-01-01T13:54:00Z,28.4073,-96.7122,0.0,2.7,192.0,10.9,'11111222,11111222,11111222' 
TCOON,ioos:station:TCOON:031:1,2017-01-01T14:00:00Z,28.4073,-96.7122,0.0,6.7,262.0,11.4,'11111222,11111222,11111222' 
TCOON,ioos:station:TCOON:031:1,2017-01-01T14:06:00Z,28.4073,-96.7122,0.0,4.6,166.0,9.2,'11111222,11111222,11111222' 
TCOON,ioos:station:TCOON:031:1,2017-01-01T14:12:00Z,28.4073,-96.7122,0.0,4.2,205.0,9.8,'11111222,11111222,11111222' 
TCOON,ioos:station:TCOON:031:1,2017-01-01T14:18:00Z,28.4073,-96.7122,0.0,1.4,338.0,7.2,'11111222,11111222,11111222' 
TCOON,ioos:station:TCOON:031:1,2017-01-01T14:24:00Z,28.4073,-96.7122,0.0,1.4,338.0,7.2,'1111122,1111122,1111122' 
TCOON,ioos:station:TCOON:031:1,2017-01-01T14:30:00Z,28.4073,-96.7122,0.0,2.4,319.0,4.0,'11111222,11111222,11111222' 
TCOON,ioos:station:TCOON:031:1,2017-01-01T14:36:00Z,28.4073,-96.7122,0.0,3.1,9.0,4.4,'11111222,11111222,11111222' 
TCOON,ioos:station:TCOON:031:1,2017-01-01T14:42:00Z,28.4073,-96.7122,0.0,2.9,317.0,3.6,'11111222,11111222,11111222' 
TCOON,ioos:station:TCOON:031:1,2017-01-01T14:48:00Z,28.4073,-96.7122,0.0,3.4,357.0,4.5,'11111222,11111222,11111222' 
TCOON,ioos:station:TCOON:031:1,2017-01-01T14:54:00Z,28.4073,-96.7122,0.0,2.4,358.0,4.4,'11111222,11111222,11111222' 
TCOON,ioos:station:TCOON:031:1,2017-01-01T15:00:00Z,28.4073,-96.7122,0.0,2.9,358.0,3.6,'11111222,11111222,11111222' 
TCOON,ioos:station:TCOON:031:1,2017-01-01T15:06:00Z,28.4073,-96.7122,0.0,3.0,356.0,4.0,'11111222,11111222,11111222' 
TCOON,ioos:station:TCOON:031:1,2017-01-01T15:12:00Z,28.4073,-96.7122,0.0,3.1,358.0,4.1,'11111222,11111222,11111222' 
TCOON,ioos:station:TCOON:031:1,2017-01-01T15:18:00Z,28.4073,-96.7122,0.0,3.1,358.0,4.1,'1111122,1111122,1111122' 
TCOON,ioos:station:TCOON:031:1,2017-01-01T15:24:00Z,28.4073,-96.7122,0.0,3.2,340.0,4.4,'11111222,11111222,11111222' 
TCOON,ioos:station:TCOON:031:1,2017-01-01T15:30:00Z,28.4073,-96.7122,0.0,2.8,11.0,4.6,'11111222,11111222,11111222' 
TCOON,ioos:station:TCOON:031:1,2017-01-01T15:36:00Z,28.4073,-96.7122,0.0,2.7,10.0,4.1,'11111222,11111222,11111222' 
TCOON,ioos:station:TCOON:031:1,2017-01-01T15:42:00Z,28.4073,-96.7122,0.0,3.0,20.0,4.0,'11111222,11111222,11111222' 
TCOON,ioos:station:TCOON:031:1,2017-01-01T15:48:00Z,28.4073,-96.7122,0.0,3.0,351.0,4.2,'11111222,11111222,11111222' 
TCOON,ioos:station:TCOON:031:1,2017-01-01T15:54:00Z,28.4073,-96.7122,0.0,4.3,4.0,5.1,'11111222,11111222,11111222' 
TCOON,ioos:station:TCOON:031:1,2017-01-01T16:00:00Z,28.4073,-96.7122,0.0,3.9,350.0,4.8,'11111222,11111222,11111222' 
TCOON,ioos:station:TCOON:031:1,2017-01-01T16:06:00Z,28.4073,-96.7122,0.0,3.1,353.0,4.8,'11111222,11111222,11111222' 
TCOON,ioos:station:TCOON:031:1,2017-01-01T16:12:00Z,28.4073,-96.7122,0.0,4.4,9.0,5.8,'11111222,11111222,11111222' 
TCOON,ioos:station:TCOON:031:1,2017-01-01T16:18:00Z,28.4073,-96.7122,0.0,4.4,9.0,5.8,'1111122,1111122,1111122' 
TCOON,ioos:station:TCOON:031:1,2017-01-01T16:24:00Z,28.4073,-96.7122,0.0,3.1,6.0,5.0,'11111222,11111222,11111222' 
TCOON,ioos:station:TCOON:031:1,2017-01-01T16:30:00Z,28.4073,-96.7122,0.0,2.8,14.0,4.2,'11111222,11111222,11111222' 
TCOON,ioos:station:TCOON:031:1,2017-01-01T16:36:00Z,28.4073,-96.7122,0.0,3.8,356.0,5.3,'11111222,11111222,11111222' 
TCOON,ioos:station:TCOON:031:1,2017-01-01T16:42:00Z,28.4073,-96.7122,0.0,3.6,357.0,4.8,'11111222,11111222,11111222' 
TCOON,ioos:station:TCOON:031:1,2017-01-01T16:48:00Z,28.4073,-96.7122,0.0,3.1,7.0,4.4,'11111222,11111222,11111222' 
TCOON,ioos:station:TCOON:031:1,2017-01-01T16:54:00Z,28.4073,-96.7122,0.0,3.3,356.0,4.2,'11111222,11111222,11111222' 
TCOON,ioos:station:TCOON:031:1,2017-01-01T17:00:00Z,28.4073,-96.7122,0.0,3.5,347.0,4.4,'11111222,11111222,11111222' 
TCOON,ioos:station:TCOON:031:1,2017-01-01T17:06:00Z,28.4073,-96.7122,0.0,3.1,16.0,4.5,'11111222,11111222,11111222' 
TCOON,ioos:station:TCOON:031:1,2017-01-01T17:12:00Z,28.4073,-96.7122,0.0,3.3,7.0,4.9,'11111222,11111222,11111222' 
TCOON,ioos:station:TCOON:031:1,2017-01-01T17:18:00Z,28.4073,-96.7122,0.0,3.3,7.0,4.9,'1111122,1111122,1111122' 
TCOON,ioos:station:TCOON:031:1,2017-01-01T17:24:00Z,28.4073,-96.7122,0.0,1.2,12.0,3.1,'11111222,11111222,11111222' 
TCOON,ioos:station:TCOON:031:1,2017-01-01T17:30:00Z,28.4073,-96.7122,0.0,2.3,326.0,3.2,'11111222,11111222,11111222' 
TCOON,ioos:station:TCOON:031:1,2017-01-01T17:36:00Z,28.4073,-96.7122,0.0,0.5,20.0,2.5,'11111222,11111222,11111222' 
TCOON,ioos:station:TCOON:031:1,2017-01-01T17:42:00Z,28.4073,-96.7122,0.0,0.7,281.0,2.1,'11111222,11111222,11111222' 
TCOON,ioos:station:TCOON:031:1,2017-01-01T17:48:00Z,28.4073,-96.7122,0.0,2.2,257.0,2.7,'11111222,11111222,11111222' 
TCOON,ioos:station:TCOON:031:1,2017-01-01T17:54:00Z,28.4073,-96.7122,0.0,2.3,232.0,2.8,'11111222,11111222,11111222' 
TCOON,ioos:station:TCOON:031:1,2017-01-01T18:00:00Z,28.4073,-96.7122,0.0,1.8,226.0,2.5,'11111222,11111222,11111222' 
TCOON,ioos:station:TCOON:031:1,2017-01-01T18:06:00Z,28.4073,-96.7122,0.0,2.0,226.0,2.7,'11111222,11111222,11111222' 
TCOON,ioos:station:TCOON:031:1,2017-01-01T18:12:00Z,28.4073,-96.7122,0.0,2.5,214.0,3.2,'11111222,11111222,11111222' 
TCOON,ioos:station:TCOON:031:1,2017-01-01T18:18:00Z,28.4073,-96.7122,0.0,1.3,214.0,2.5,'11111222,11111222,11111222' 
TCOON,ioos:station:TCOON:031:1,2017-01-01T18:24:00Z,28.4073,-96.7122,0.0,1.3,214.0,2.5,'1111122,1111122,1111122' 
TCOON,ioos:station:TCOON:031:1,2017-01-01T18:30:00Z,28.4073,-96.7122,0.0,2.0,210.0,2.6,'11111222,11111222,11111222' 
TCOON,ioos:station:TCOON:031:1,2017-01-01T18:36:00Z,28.4073,-96.7122,0.0,2.5,198.0,3.0,'11111222,11111222,11111222' 
TCOON,ioos:station:TCOON:031:1,2017-01-01T18:42:00Z,28.4073,-96.7122,0.0,1.9,212.0,2.6,'11111222,11111222,11111222' 
TCOON,ioos:station:TCOON:031:1,2017-01-01T18:48:00Z,28.4073,-96.7122,0.0,1.9,221.0,2.1,'11111222,11111222,11111222' 
TCOON,ioos:station:TCOON:031:1,2017-01-01T18:54:00Z,28.4073,-96.7122,0.0,2.2,227.0,2.4,'11111222,11111222,11111222' 
TCOON,ioos:station:TCOON:031:1,2017-01-01T19:00:00Z,28.4073,-96.7122,0.0,2.7,229.0,2.9,'11111222,11111222,11111222' 
TCOON,ioos:station:TCOON:031:1,2017-01-01T19:06:00Z,28.4073,-96.7122,0.0,2.2,231.0,2.9,'11111222,11111222,11111222' 
TCOON,ioos:station:TCOON:031:1,2017-01-01T19:12:00Z,28.4073,-96.7122,0.0,1.6,240.0,2.2,'11111222,11111222,11111222' 
TCOON,ioos:station:TCOON:031:1,2017-01-01T19:18:00Z,28.4073,-96.7122,0.0,1.6,240.0,2.2,'1111122,1111122,1111122' 
TCOON,ioos:station:TCOON:031:1,2017-01-01T19:24:00Z,28.4073,-96.7122,0.0,1.0,236.0,1.5,'11111222,11111222,11111222' 
TCOON,ioos:station:TCOON:031:1,2017-01-01T19:30:00Z,28.4073,-96.7122,0.0,0.5,236.0,0.9,'11111222,11111222,11111222' 
TCOON,ioos:station:TCOON:031:1,2017-01-01T19:36:00Z,28.4073,-96.7122,0.0,0.2,236.0,0.5,'11111222,11111222,11111222' 
TCOON,ioos:station:TCOON:031:1,2017-01-01T19:42:00Z,28.4073,-96.7122,0.0,0.7,221.0,1.0,'11111222,11111222,11111222' 
TCOON,ioos:station:TCOON:031:1,2017-01-01T19:48:00Z,28.4073,-96.7122,0.0,1.2,198.0,1.4,'11111222,11111222,11111222' 
TCOON,ioos:station:TCOON:031:1,2017-01-01T19:54:00Z,28.4073,-96.7122,0.0,1.4,153.0,1.5,'11111222,11111222,11111222' 
TCOON,ioos:station:TCOON:031:1,2017-01-01T20:00:00Z,28.4073,-96.7122,0.0,1.8,140.0,2.1,'11111222,11111222,11111222' 
TCOON,ioos:station:TCOON:031:1,2017-01-01T20:06:00Z,28.4073,-96.7122,0.0,2.1,133.0,2.4,'11111222,11111222,11111222' 
TCOON,ioos:station:TCOON:031:1,2017-01-01T20:12:00Z,28.4073,-96.7122,0.0,2.0,131.0,2.2,'11111222,11111222,11111222' 
TCOON,ioos:station:TCOON:031:1,2017-01-01T20:18:00Z,28.4073,-96.7122,0.0,2.0,131.0,2.2,'1111122,1111122,1111122' 
TCOON,ioos:station:TCOON:031:1,2017-01-01T20:24:00Z,28.4073,-96.7122,0.0,2.3,142.0,2.5,'11111222,11111222,11111222' 